Montreal Mirabel, Quebec

2:44 AM EDT on August 17, 2017 (GMT -0400)
Montreal Mirabel

Weather History for CYMX - January, 2013

Change the Weather History Date:

Saturday, January 19, 2013

  Actual Average Record
Temperature  
Mean Temperature 14 °F -  
Max Temperature 21 °F 15 °F 35 °F (1999)
Min Temperature 6 °F 0 °F -22 °F (2000)
Degree Days  
Heating Degree Days 52    
Moisture  
Dew Point 12 °F    
Average Humidity 89    
Maximum Humidity 100    
Minimum Humidity 79    
Precipitation  
Precipitation 0.00 in - - ()
Sea Level Pressure  
Sea Level Pressure 29.92 in    
Wind  
Wind Speed 5 mph ()    
Max Wind Speed 10 mph    
Max Gust Speed -    
Visibility 2.7 miles    
Events Snow    
Averages and records for this station are not official NWS values.
T = Trace of Precipitation, MM = Missing Value Source: Averaged Metar Reports

Daily Weather History Graph

Daily Weather History Graph

Search for Another Location

Airport or City:

Trip Planner

Search our weather history database for the weather conditions in past years. The results will help you decide how hot, cold, wet, or windy it might be!

Date:

Astronomy

Jan. 19, 2013 Rise Set
Actual Time 7:30 AM EST 4:44 PM EST
Civil Twilight 6:57 AM EST 5:17 PM EST
Nautical Twilight 6:20 AM EST 5:53 PM EST
Astronomical Twilight 5:45 AM EST 6:29 PM EST
Moon 11:12 AM EST (1/19) 12:57 AM EST (1/19)
Length of Visible Light 10h 19m
Length of Day
9h 14m
First Quarter, 57% of the Moon is Illuminated
Jan 19
First Quarter
Jan 26
Full
Feb 3
Last Quarter
Feb 10
New
Feb 17
First Quarter

Hourly Weather History & Observations

Time (EST) Temp. Windchill Dew Point Humidity Pressure Visibility Wind Dir Wind Speed Gust Speed Precip Events Conditions
12:00 AM 6.8 °F -3.5 °F 1.4 °F 79% 30.17 in 2.0 mi NE 5.8 mph - N/A Snow Light Snow
1:00 AM 6.8 °F -0.1 °F 3.2 °F 85% 30.13 in 2.5 mi NNE 3.5 mph - N/A Snow Light Snow
2:00 AM 6.8 °F -0.1 °F 3.2 °F 85% 30.10 in 2.5 mi NE 3.5 mph - N/A Snow Light Snow
3:00 AM 8.6 °F -1.3 °F 5.0 °F 85% 30.07 in 2.0 mi NE 5.8 mph - N/A Snow Light Snow
4:00 AM 8.6 °F -2.6 °F 5.0 °F 85% 30.02 in 2.0 mi NNE 6.9 mph - N/A Snow Light Snow
5:00 AM 8.6 °F -3.7 °F 5.0 °F 85% 29.99 in 2.0 mi NNE 8.1 mph - N/A Snow Light Snow
6:00 AM 10.4 °F -0.4 °F 6.8 °F 85% 29.96 in 2.0 mi NNE 6.9 mph - N/A Snow Light Snow
7:00 AM 10.4 °F -0.4 °F 6.8 °F 85% 29.95 in 1.5 mi NNE 6.9 mph - N/A Snow Light Snow
8:00 AM 12.2 °F 2.9 °F 8.6 °F 85% 29.94 in 1.0 mi NNE 5.8 mph - N/A Snow Light Snow
9:00 AM 12.2 °F 2.9 °F 8.6 °F 85% 29.94 in 0.6 mi NNE 5.8 mph - N/A Snow Light Snow
10:00 AM 14.0 °F 5.1 °F 10.4 °F 86% 29.93 in 0.8 mi NNE 5.8 mph - N/A Snow Light Snow
11:00 AM 15.8 °F 7.2 °F 12.2 °F 86% 29.91 in 0.8 mi NE 5.8 mph - N/A Snow Light Snow
12:00 PM 17.6 °F 10.7 °F 14.0 °F 86% 29.88 in 1.5 mi NE 4.6 mph - N/A Snow Light Snow
12:27 PM 17.6 °F 12.3 °F 14.0 °F 86% 29.87 in 0.8 mi NE 3.5 mph - N/A Snow Light Snow
1:00 PM 17.6 °F 10.7 °F 15.8 °F 93% 29.86 in 1.2 mi NE 4.6 mph - N/A Snow Light Snow
1:27 PM 17.6 °F 10.7 °F 15.8 °F 93% 29.86 in 3.0 mi NE 4.6 mph - N/A Snow Light Snow
2:00 PM 19.4 °F 11.5 °F 15.8 °F 86% 29.86 in 10.0 mi NE 5.8 mph - N/A Snow Light Snow
3:00 PM 19.4 °F 11.5 °F 17.6 °F 93% 29.86 in 8.0 mi NE 5.8 mph - N/A Snow Light Snow
3:34 PM 19.4 °F 12.8 °F 17.6 °F 93% 29.86 in 5.0 mi NE 4.6 mph - N/A Snow Light Snow
4:00 PM 19.4 °F 12.8 °F 17.6 °F 93% 29.86 in 6.0 mi NE 4.6 mph - N/A Snow Light Snow
5:00 PM 19.4 °F 12.8 °F 17.6 °F 93% 29.86 in 6.0 mi NE 4.6 mph - N/A Snow Light Snow
6:00 PM 19.4 °F 11.5 °F 19.4 °F 100% 29.86 in 3.0 mi NE 5.8 mph - N/A Snow Light Snow
7:00 PM 21.2 °F 13.6 °F 19.4 °F 93% 29.85 in 2.0 mi NE 5.8 mph - N/A Snow Light Snow
8:00 PM 21.2 °F 13.6 °F 19.4 °F 93% 29.83 in 2.0 mi NE 5.8 mph - N/A Snow Light Snow
9:00 PM 19.4 °F 9.5 °F 17.6 °F 93% 29.81 in 1.5 mi NE 8.1 mph - N/A Snow Light Snow
10:00 PM 19.4 °F 7.9 °F 17.6 °F 93% 29.77 in 1.5 mi NE 10.4 mph - N/A Snow Light Snow
11:00 PM 19.4 °F 10.4 °F 17.6 °F 93% 29.72 in 1.5 mi ENE 6.9 mph - N/A Snow Light Snow